Flag for Belgium Weather past 2 weeks in Antwerp, Belgium

Now
43 °F

Sprinkles. Partly cloudy.


Feels Like: 34 °F
Forecast: 38 / 47 °F
Wind: 20 mph from Northwest

Location: Antwerp / Deurne

Current Time: Apr 1, 2015 at 7:14:03 AM

Latest Report: Apr 1, 2015 at 6:50 AM


Visibility: N/A

Pressure: 30.04 "Hg

Humidity: 61%

Dew point: 30 °F

Location of AntwerpLocation

Historic Weather in Antwerp — Graph

°F

Antwerp temperature yesterday

Maximum temperature yesterday: 54 °F (at 10:20 AM)
Minimum temperature yesterday: 45 °F (at 12:20 AM)
Average temperature yesterday: 50 °F

Past Weeks' High & Low Weather Summary

 TemperatureHumidityPressure
High63 °F (Mar 17, 2:50 PM)94% (Mar 28, 1:50 PM)30.42 "Hg (Mar 28, 1:50 PM)
Low28 °F (Mar 23, 1:50 AM)37% (Mar 17, 4:50 PM)29.33 "Hg (Mar 29, 5:20 PM)
Average45 °F76%29.99 "Hg
* Reported Mar 17 4:20 AM — Apr 1 5:50 AM, Antwerp, Weather by CustomWeather, © 2015

Note: Actual official high and low records may vary slightly from our data, if they occured in-between our weather recording intervals... More about our weather records

Advertising

Antwerp weather history for previous 24 hours

 ConditionsComfort  
Time TempWeatherWind HumidityBarometerVisibility
5:50 AM
Wed, Apr 1
43 °FMostly cloudy.21 mph61%30.01 "HgN/A
5:20 AM43 °FPartly cloudy.20 mph61%30.01 "HgN/A
4:50 AM43 °FPassing clouds.21 mph61%30.01 "HgN/A
4:20 AM43 °FPassing clouds.20 mph61%29.98 "HgN/A
3:50 AM43 °FPartly cloudy.22 mph61%29.98 "HgN/A
3:20 AM43 °FPassing clouds.17 mph61%29.98 "HgN/A
2:50 AM43 °FPassing clouds.22 mph61%29.95 "HgN/A
2:20 AM45 °FMostly cloudy.20 mph61%29.95 "HgN/A
1:50 AM45 °FPartly cloudy.22 mph61%29.95 "HgN/A
1:20 AM45 °FPassing clouds.21 mph61%29.95 "HgN/A
12:50 AM45 °FClear.23 mph61%29.92 "Hg10 mi
12:20 AM45 °FClear.21 mph61%29.92 "Hg10 mi
11:50 PM
Tue, Mar 31
45 °FPassing clouds.20 mph66%29.92 "HgN/A
11:20 PM45 °FClear.16 mph66%29.89 "Hg10 mi
10:50 PM45 °FPassing clouds.18 mph61%29.89 "HgN/A
10:20 PM45 °FPassing clouds.20 mph66%29.89 "HgN/A
9:50 PM45 °FPassing clouds.16 mph71%29.89 "HgN/A
9:20 PM46 °FPassing clouds.16 mph66%29.86 "HgN/A
8:50 PM46 °FPassing clouds.16 mph71%29.86 "HgN/A
8:20 PM46 °FPassing clouds.15 mph71%29.86 "HgN/A
7:50 PM46 °FScattered clouds.17 mph71%29.86 "HgN/A
7:20 PM46 °FSprinkles. Scattered clouds.20 mph66%29.83 "Hg6 mi
6:50 PM48 °FScattered showers. Scattered clouds.24 mph58%29.80 "HgN/A
6:20 PM54 °FScattered clouds.29 mph38%29.80 "HgN/A
5:50 PM54 °FScattered clouds.28 mph41%29.77 "HgN/A
5:20 PM54 °FScattered clouds.22 mph41%29.77 "HgN/A
4:50 PM54 °FScattered clouds.30 mph41%29.77 "HgN/A
4:20 PM54 °FScattered clouds.26 mph44%29.77 "HgN/A
3:50 PM52 °FScattered clouds.29 mph47%29.77 "HgN/A
3:20 PM54 °FScattered clouds.29 mph47%29.74 "HgN/A
2:50 PM52 °FScattered clouds.33 mph47%29.74 "HgN/A
2:20 PM54 °FScattered clouds.31 mph47%29.71 "HgN/A
1:50 PM54 °FScattered clouds.30 mph47%29.68 "HgN/A
1:20 PM52 °FScattered clouds.30 mph50%29.65 "HgN/A
12:50 PM54 °FScattered clouds.32 mph51%29.65 "HgN/A
12:20 PM54 °FScattered clouds.31 mph54%29.62 "HgN/A
11:50 AM54 °FScattered clouds.31 mph54%29.59 "HgN/A
11:20 AM54 °FScattered clouds.33 mph54%29.56 "HgN/A
10:50 AM54 °FScattered clouds.31 mph54%29.53 "HgN/A
10:20 AM54 °FScattered clouds.29 mph54%29.53 "HgN/A
9:50 AM52 °FPartly sunny.29 mph54%29.50 "HgN/A
9:20 AM52 °FPartly sunny.30 mph67%29.47 "HgN/A
8:50 AM52 °FScattered clouds.24 mph72%29.45 "HgN/A
8:20 AM52 °FPassing clouds.26 mph72%29.45 "HgN/A
7:50 AM52 °FPassing clouds.22 mph77%29.42 "HgN/A
7:20 AM52 °FSprinkles. Partly cloudy.29 mph82%29.39 "Hg4 mi
Weather by CustomWeather, © 2015

See weather overviewHow to use our weather pages